| time (UTC) | temp C | wind direction | speed KPH | gust KPH | rain 1hr cm | rain 24hr cm | rain mn cm | humidity % | barometer mb |
| 20260502211851 | 26 | 317 | 37.0 | 61.2 | 0.00 | 0.00 | 0.00 | 66 | 1010.4 |
| 20260502210906 | 30 | 298 | 24.1 | 43.5 | 0.00 | 0.00 | 0.00 | 62 | 1009.8 |
| 20260502204650 | 30 | 279 | 29.0 | 41.8 | 0.00 | 0.00 | 0.00 | 59 | 1009.5 |
| 20260502203711 | 30 | 282 | 24.1 | 30.6 | 0.00 | 0.00 | 0.00 | 60 | 1009.4 |
| 20260502202729 | 30 | 275 | 24.1 | 35.4 | 0.00 | 0.00 | 0.00 | 61 | 1009.4 |
| 20260502201726 | 30 | 272 | 24.1 | 35.4 | 0.00 | 0.00 | 0.00 | 58 | 1009.3 |
| 20260502200742 | 30 | 278 | 22.5 | 33.8 | 0.00 | 0.00 | 0.00 | 59 | 1009.3 |
| 20260502195756 | 31 | 273 | 24.1 | 33.8 | 0.00 | 0.00 | 0.00 | 56 | 1009.2 |
| 20260502194804 | 30 | 265 | 16.1 | 25.7 | 0.00 | 0.00 | 0.00 | 58 | 1009.4 |
| 20260502192638 | 30 | 275 | 24.1 | 40.2 | 0.00 | 0.00 | 0.00 | 62 | 1009.8 |
| 20260502191604 | 31 | 279 | 29.0 | 40.2 | 0.00 | 0.00 | 0.00 | 56 | 1009.7 |
| 20260502185436 | 31 | 266 | 20.9 | 29.0 | 0.00 | 0.00 | 0.00 | 58 | 1009.8 |
| 20260502183344 | 30 | 285 | 11.3 | 20.9 | 0.00 | 0.00 | 0.00 | 62 | 1009.7 |
| 20260502181221 | 30 | 268 | 22.5 | 33.8 | 0.00 | 0.00 | 0.00 | 60 | 1009.8 |
| 20260502180207 | 30 | 286 | 25.7 | 38.6 | 0.00 | 0.00 | 0.00 | 63 | 1009.9 |
| 20260502164011 | 28 | 239 | 8.0 | 19.3 | 0.00 | 0.00 | 0.00 | 68 | 1010.5 |
| 20260502163007 | 28 | 227 | 12.9 | 19.3 | 0.00 | 0.00 | 0.00 | 67 | 1010.7 |
| 20260502162012 | 28 | 223 | 14.5 | 22.5 | 0.00 | 0.00 | 0.00 | 68 | 1010.7 |
| 20260502161015 | 28 | 225 | 17.7 | 24.1 | 0.00 | 0.00 | 0.00 | 67 | 1010.8 |
| 20260502151753 | 27 | 238 | 17.7 | 29.0 | 0.00 | 0.00 | 0.00 | 71 | 1011.4 |
| 20260502150755 | 27 | 211 | 20.9 | 29.0 | 0.00 | 0.00 | 0.00 | 74 | 1011.4 |
| 20260502130404 | 25 | 195 | 16.1 | 20.9 | 0.00 | 0.00 | 0.00 | 77 | 1010.6 |
| 20260502123400 | 23 | 188 | 11.3 | 17.7 | 0.00 | 0.00 | 0.00 | 85 | 1010.7 |
| 20260502121305 | 22 | 214 | 11.3 | 17.7 | 0.00 | 0.00 | 0.00 | 86 | 1010.8 |
| 20260502115100 | 22 | 219 | 12.9 | 17.7 | 0.00 | 0.00 | 0.00 | 86 | 1010.6 |
| 20260502114044 | 22 | 209 | 12.9 | 16.1 | 0.00 | 0.00 | 0.00 | 86 | 1010.6 |
| 20260502113058 | 22 | 220 | 11.3 | 14.5 | 0.00 | 0.00 | 0.00 | 86 | 1010.5 |
| 20260502112110 | 22 | 221 | 11.3 | 14.5 | 0.00 | 0.00 | 0.00 | 86 | 1010.5 |
| 20260502111105 | 22 | 200 | 11.3 | 14.5 | 0.00 | 0.00 | 0.00 | 86 | 1010.4 |
| 20260502104943 | 22 | 211 | 11.3 | 14.5 | 0.00 | 0.00 | 0.00 | 85 | 1010.3 |
| 20260502103952 | 22 | 223 | 9.7 | 12.9 | 0.00 | 0.00 | 0.00 | 85 | 1010.3 |
| 20260502102917 | 22 | 216 | 9.7 | 12.9 | 0.00 | 0.00 | 0.00 | 84 | 1010.1 |
| 20260502101908 | 22 | 239 | 8.0 | 12.9 | 0.00 | 0.00 | 0.00 | 84 | 1010.0 |
| 20260502100902 | 22 | 231 | 6.4 | 11.3 | 0.00 | 0.00 | 0.00 | 84 | 1010.1 |
| 20260502090626 | 23 | 231 | 12.9 | 20.9 | 0.00 | 0.00 | 0.00 | 81 | 1010.4 |
| 20260502071405 | 24 | 223 | 12.9 | 17.7 | 0.00 | 0.00 | 0.00 | 75 | 1010.1 |
| 20260502070405 | 25 | 219 | 12.9 | 17.7 | 0.00 | 0.00 | 0.00 | 74 | 1010.1 |
| 20260502065341 | 25 | 236 | 12.9 | 17.7 | 0.00 | 0.00 | 0.00 | 74 | 1010.1 |
| 20260502064359 | 25 | 244 | 12.9 | 16.1 | 0.00 | 0.00 | 0.00 | 72 | 1010.1 |
| 20260502063350 | 25 | 241 | 12.9 | 17.7 | 0.00 | 0.00 | 0.00 | 72 | 1010.1 |
| 20260502062410 | 25 | 231 | 12.9 | 17.7 | 0.00 | 0.00 | 0.00 | 72 | 1010.2 |
| 20260502061355 | 25 | 238 | 12.9 | 17.7 | 0.00 | 0.00 | 0.00 | 72 | 1010.2 |
| 20260502060400 | 25 | 219 | 12.9 | 17.7 | 0.00 | 0.00 | 0.00 | 72 | 1010.4 |
| 20260502055355 | 25 | 219 | 14.5 | 19.3 | 0.00 | 0.00 | 0.00 | 71 | 1010.5 |
| 20260502054321 | 25 | 219 | 16.1 | 19.3 | 0.00 | 0.00 | 0.00 | 71 | 1010.6 |
| 20260502053249 | 25 | 224 | 14.5 | 20.9 | 0.00 | 0.00 | 0.00 | 72 | 1010.5 |
| 20260502051106 | 26 | 200 | 16.1 | 20.9 | 0.00 | 0.00 | 0.00 | 72 | 1010.6 |
| 20260502050101 | 26 | 192 | 16.1 | 24.1 | 0.00 | 0.00 | 0.00 | 71 | 1010.6 |
| 20260502045042 | 26 | 216 | 17.7 | 24.1 | 0.00 | 0.00 | 0.00 | 72 | 1010.5 |
| 20260502044034 | 26 | 221 | 17.7 | 24.1 | 0.00 | 0.00 | 0.00 | 72 | 1010.6 |
| 20260502043023 | 26 | 206 | 17.7 | 25.7 | 0.00 | 0.00 | 0.00 | 75 | 1010.7 |
| 20260502042008 | 26 | 197 | 17.7 | 25.7 | 0.00 | 0.00 | 0.00 | 78 | 1010.7 |
| 20260502041013 | 25 | 185 | 17.7 | 24.1 | 0.00 | 0.00 | 0.00 | 78 | 1010.7 |
| 20260502034750 | 26 | 184 | 17.7 | 27.4 | 0.00 | 0.00 | 0.00 | 77 | 1010.6 |
| 20260502032630 | 26 | 180 | 22.5 | 32.2 | 0.00 | 0.00 | 0.00 | 77 | 1010.7 |
| 20260502031640 | 26 | 192 | 22.5 | 29.0 | 0.00 | 0.00 | 0.00 | 77 | 1010.7 |
| 20260502030633 | 26 | 158 | 22.5 | 29.0 | 0.00 | 0.00 | 0.00 | 77 | 1010.7 |
| 20260502025613 | 26 | 180 | 19.3 | 27.4 | 0.00 | 0.00 | 0.00 | 78 | 1010.7 |
| 20260502024632 | 26 | 171 | 14.5 | 22.5 | 0.00 | 0.00 | 0.00 | 78 | 1010.8 |
| 20260502022441 | 27 | 166 | 14.5 | 20.9 | 0.00 | 0.00 | 0.00 | 76 | 1010.7 |
| 20260502021416 | 27 | 179 | 14.5 | 20.9 | 0.00 | 0.00 | 0.00 | 79 | 1010.7 |
| 20260502020438 | 27 | 158 | 9.7 | 16.1 | 0.00 | 0.00 | 0.00 | 80 | 1010.6 |
| 20260502015457 | 27 | 149 | 9.7 | 19.3 | 0.00 | 0.00 | 0.00 | 80 | 1010.6 |
| 20260502014441 | 27 | 142 | 11.3 | 22.5 | 0.00 | 0.00 | 0.00 | 80 | 1010.5 |
| 20260502013429 | 27 | 146 | 14.5 | 22.5 | 0.00 | 0.00 | 0.00 | 80 | 1010.2 |
| 20260502012422 | 27 | 138 | 12.9 | 22.5 | 0.00 | 0.00 | 0.00 | 80 | 1010.2 |
| 20260502011427 | 27 | 134 | 12.9 | 22.5 | 0.00 | 0.00 | 0.00 | 79 | 1010.2 |
| 20260502010352 | 26 | 135 | 12.9 | 20.9 | 0.00 | 0.00 | 0.00 | 79 | 1010.0 |
| 20260502005328 | 26 | 117 | 11.3 | 20.9 | 0.00 | 0.00 | 0.00 | 79 | 1009.9 |
| 20260502004319 | 26 | 146 | 9.7 | 16.1 | 0.00 | 0.00 | 0.00 | 80 | 1009.9 |
| 20260502003246 | 26 | 137 | 9.7 | 20.9 | 0.00 | 0.00 | 0.00 | 79 | 1009.7 |
| 20260502002257 | 26 | 162 | 9.7 | 20.9 | 0.00 | 0.00 | 0.00 | 79 | 1009.6 |
| 20260502001246 | 26 | 124 | 9.7 | 17.7 | 0.00 | 0.00 | 0.00 | 79 | 1009.4 |
| 20260502000226 | 26 | 126 | 9.7 | 19.3 | 0.00 | 0.00 | 0.00 | 79 | 1009.4 |
| 20260501235158 | 26 | 111 | 11.3 | 19.3 | 0.00 | 0.00 | 0.00 | 78 | 1009.3 |
| 20260501234208 | 27 | 153 | 8.0 | 17.7 | 0.00 | 0.00 | 0.00 | 78 | 1009.2 |
| 20260501233142 | 27 | 113 | 9.7 | 17.7 | 0.00 | 0.00 | 0.00 | 78 | 1009.3 |
| 20260501232116 | 27 | 153 | 11.3 | 19.3 | 0.00 | 0.00 | 0.00 | 77 | 1009.3 |
| 20260501231047 | 27 | 142 | 9.7 | 25.7 | 0.00 | 0.00 | 0.00 | 77 | 1009.2 |
| 20260501230016 | 27 | 144 | 11.3 | 27.4 | 0.00 | 0.00 | 0.00 | 77 | 1008.8 |
| 20260501225013 | 27 | 152 | 14.5 | 27.4 | 0.00 | 0.00 | 0.00 | 76 | 1008.9 |
| 20260501222916 | 27 | 159 | 12.9 | 24.1 | 0.00 | 0.00 | 0.00 | 75 | 1008.8 |
| 20260501221901 | 27 | 124 | 11.3 | 24.1 | 0.00 | 0.00 | 0.00 | 75 | 1009.0 |
| 20260501220848 | 27 | 132 | 14.5 | 25.7 | 0.00 | 0.00 | 0.00 | 74 | 1009.1 |
| 20260501214708 | 27 | 163 | 16.1 | 29.0 | 0.00 | 0.00 | 0.00 | 72 | 1008.8 |
| 20260501213643 | 27 | 126 | 12.9 | 24.1 | 0.00 | 0.00 | 0.00 | 71 | 1009.0 |
| 20260501212612 | 27 | 140 | 12.9 | 24.1 | 0.00 | 0.00 | 0.00 | 71 | 1009.0 |